Simultaneous Nadir Overpasses (SNOs) Predictions

Prediction of SNOs between LANDSAT-8 and METOP-B Satellite Orbit:

Table of predicted SNOs for the next 14.0 days since TLE Epoch: 8/3/2019
Index Date (LANDSAT-8) Time (LANDSAT-8) Lat,Lon (LANDSAT-8) SZA (LANDSAT-8 ) Date (METOP-B) Time (METOP-B) Lat,Lon (METOP-B) SZA (METOP-B ) Distance(km) Time Diff (sec)
1 08/04/2019 08:08:33 81.15, 98.30 65.89 08/04/2019 08:07:34 81.15, 98.30 65.87 0.12 59
2 08/04/2019 08:57:59 -81.17, -93.74 114.05 08/04/2019 08:58:13 -81.17, -93.79 114.05 0.84 14
3 08/07/2019 03:42:48 81.16, 164.87 66.68 08/07/2019 03:41:55 81.15, 164.76 66.65 2.03 53
4 08/07/2019 04:32:14 -81.18, -27.14 113.26 08/07/2019 04:32:34 -81.17, -27.31 113.28 2.98 20
5 08/09/2019 23:17:04 81.16,-128.57 67.51 08/09/2019 23:16:16 81.16,-128.42 67.50 2.55 48
6 08/10/2019 00:06:31 -81.16, 39.07 112.49 08/10/2019 00:06:56 -81.17, 39.16 112.46 1.65 25
7 08/12/2019 18:51:21 81.15, -62.39 68.31 08/12/2019 18:50:39 81.15, -62.37 68.30 0.52 42
8 08/12/2019 19:40:47 -81.17, 105.64 111.63 08/12/2019 19:41:18 -81.17, 105.61 111.62 0.49 31
9 08/15/2019 14:25:37 81.15, 4.15 69.20 08/15/2019 14:25:01 81.15, 4.04 69.17 1.87 36




NCC Satellite Simultaneous Nadir Overpasses (SNOs) Prediction Service
